Location: *
(42.3442°N, 9.2072°E)
Time: 09:43:47
(UTC+00:00)

COSMOS 2455 - Pass Details

Date: 09 April 2020
Orbit: 899 x 910 km, 67.1° (Epoch: 06 June)

Event Time Altitude Azimuth Distance (km) Brightness Sun altitude
Rises 20:02:52 0° 326° (NW) 3,544 7.1 -21.9°
Reaches altitude 10° 20:05:25 10° 322° (NW) 2,600 6.3 -22.3°
Maximum altitude 20:11:18 57° 246° (WSW) 1,068 3.3 -23.2°
Enters shadow 20:13:56 32° 183° (S) 1,504 3.7 -23.5°
